View from above orbital plane
|
View from above satellite
|
Ground track
|
The orbit data is extracted from the following two-line orbital elements,
1 45U 60007A 21021.37633830 -.00000022 00000-0 21428-4 0 9997
2 45 66.6939 166.5844 0252814 158.5664 202.6255 14.33702770153949
Epoch (UTC): | 21 January 2021 09:01:55 |
Eccentricity: | 0.0252814 |
inclination: | 66.6939° |
perigee height: | 598 km |
apogee height: | 960 km |
right ascension of ascending node: | 166.5844° |
argument of perigee: | 158.5664° |
revolutions per day: | 14.33702770 |
mean anomaly at epoch: | 202.6255° |
orbit number at epoch: | 15394 |
The dashed part of the orbit path shows where the satellite is in the earth's shadow,
|
|